Ahoskie, NC

2:27 PM EST on November 11, 2019 (GMT -0500)
Tri County

Weather History for KASJ - October, 2019

Change the Weather History Date:

Wednesday, October 23, 2019

  Actual Average (KEMV) Record (KEMV)
Temperature  
Mean Temperature 56 °F -  
Max Temperature 69 °F 67 °F 86 °F (2007)
Min Temperature 43 °F 41 °F 26 °F (1987)
Degree Days  
Heating Degree Days 9    
Growing Degree Days 6 (Base 50)    
Moisture  
Dew Point 49 °F    
Average Humidity 76    
Maximum Humidity 100    
Minimum Humidity 32    
Precipitation  
Precipitation 0.00 in - - ()
Sea Level Pressure  
Sea Level Pressure 30.07 in    
Wind  
Wind Speed 2 mph ()    
Max Wind Speed 8 mph    
Max Gust Speed -    
Visibility 10.0 miles    
Events      
Averages and records for this station are not official NWS values.
T = Trace of Precipitation, MM = Missing Value Source: Averaged Metar Reports

Daily Weather History Graph

Daily Weather History Graph

Search for Another Location

Airport or City:

Astronomy

Oct. 23, 2019 Rise Set
Actual Time 7:22 AM EDT 6:22 PM EDT
Civil Twilight 6:56 AM EDT 6:48 PM EDT
Nautical Twilight 6:26 AM EDT 7:18 PM EDT
Astronomical Twilight 5:56 AM EDT 7:48 PM EDT
Moon 1:51 AM EDT (10/23) 4:00 PM EDT (10/23)
Length of Visible Light 11h 52m
Length of Day
10h 59m
Waning Crescent, 27% of the Moon is Illuminated
Oct 23
Waning Crescent
Oct 27
New
Nov 4
First Quarter
Nov 12
Full
Nov 19
Last Quarter

Hourly Weather History & Observations

Time (EDT) Temp. Dew Point Humidity Pressure Visibility Wind Dir Wind Speed Gust Speed Precip Events Conditions
12:15 AM 61.7 °F 61.7 °F 100% 29.88 in 10.0 mi Calm Calm - N/A   Scattered Clouds
1:15 AM 60.4 °F 60.4 °F 100% 29.89 in 10.0 mi Calm Calm - N/A   Scattered Clouds
1:35 AM 60.3 °F 60.3 °F 100% 29.89 in 10.0 mi WNW 3.5 mph - N/A   Scattered Clouds
1:55 AM 59.9 °F 59.9 °F 100% 29.89 in 10.0 mi Calm Calm - N/A   Scattered Clouds
2:15 AM 59.2 °F 59.2 °F 100% 29.90 in 10.0 mi Calm Calm - N/A   Scattered Clouds
2:35 AM 59.0 °F 59.0 °F 100% 29.91 in 10.0 mi Calm Calm - N/A   Scattered Clouds
2:55 AM 58.6 °F 58.6 °F 100% 29.91 in 10.0 mi Calm Calm - N/A   Scattered Clouds
3:15 AM 57.9 °F 57.9 °F 100% 29.92 in 10.0 mi Calm Calm - N/A   Mostly Cloudy
3:35 AM 57.6 °F 57.6 °F 100% 29.92 in 10.0 mi Calm Calm - N/A   Mostly Cloudy
3:55 AM 56.7 °F 56.7 °F 100% 29.93 in 10.0 mi WNW 3.5 mph - N/A   Mostly Cloudy
4:15 AM 57.2 °F 57.2 °F 100% 29.94 in 10.0 mi WNW 4.6 mph - N/A   Mostly Cloudy
4:35 AM 57.2 °F 57.2 °F 100% 29.95 in 10.0 mi WNW 3.5 mph - N/A   Overcast
4:55 AM 57.0 °F 57.0 °F 100% 29.96 in 10.0 mi WNW 4.6 mph - N/A   Overcast
5:15 AM 56.5 °F 56.5 °F 100% 29.96 in 10.0 mi WNW 3.5 mph - N/A   Overcast
5:35 AM 56.3 °F 56.3 °F 100% 29.98 in 10.0 mi WNW 4.6 mph - N/A   Overcast
5:55 AM 56.3 °F 56.3 °F 100% 29.98 in 7.0 mi Calm Calm - N/A   Overcast
6:15 AM 55.4 °F 55.4 °F 100% 29.98 in 10.0 mi Calm Calm - N/A   Overcast
6:35 AM 55.4 °F 55.4 °F 100% 29.99 in 10.0 mi NW 3.5 mph - N/A   Overcast
6:55 AM 54.5 °F 54.5 °F 100% 30.01 in 10.0 mi Calm Calm - N/A   Overcast
7:15 AM 54.1 °F 54.1 °F 100% 30.03 in 10.0 mi Calm Calm - N/A   Overcast
7:35 AM 54.0 °F 54.0 °F 100% 30.04 in 10.0 mi North 4.6 mph - N/A   Overcast
7:55 AM 53.6 °F 53.6 °F 100% 30.05 in 10.0 mi Calm Calm - N/A   Overcast
8:15 AM 53.8 °F 53.8 °F 100% 30.06 in 10.0 mi Calm Calm - N/A   Scattered Clouds
8:35 AM 54.5 °F 54.5 °F 100% 30.07 in 10.0 mi Calm Calm - N/A   Scattered Clouds
8:55 AM 55.4 °F 55.4 °F 100% 30.09 in 10.0 mi NW 3.5 mph - N/A   Scattered Clouds
9:35 AM 58.1 °F 53.6 °F 85% 30.10 in 10.0 mi NNW 4.6 mph - N/A   Clear
9:55 AM 59.7 °F 52.5 °F 77% 30.10 in 10.0 mi NW 4.6 mph - N/A   Clear
10:15 AM 60.6 °F 50.2 °F 68% 30.10 in 10.0 mi NNW 5.8 mph - N/A   Clear
10:35 AM 62.1 °F 48.7 °F 62% 30.10 in 10.0 mi North 5.8 mph - N/A   Clear
10:55 AM 63.5 °F 49.1 °F 59% 30.10 in 10.0 mi NW 5.8 mph - N/A   Clear
11:15 AM 64.4 °F 46.9 °F 53% 30.10 in 10.0 mi North 6.9 mph - N/A   Clear
11:35 AM 64.6 °F 43.9 °F 47% 30.11 in 10.0 mi North 6.9 mph - N/A   Clear
11:55 AM 65.5 °F 43.3 °F 45% 30.11 in 10.0 mi North 8.1 mph - N/A   Clear
12:15 PM 66.4 °F 44.4 °F 45% 30.11 in 10.0 mi NNW 4.6 mph - N/A   Clear
12:35 PM 66.4 °F 42.4 °F 42% 30.10 in 10.0 mi West 4.6 mph - N/A   Clear
12:55 PM 66.7 °F 40.6 °F 39% 30.10 in 10.0 mi NNW 3.5 mph - N/A   Clear
1:15 PM 67.8 °F 41.9 °F 39% 30.10 in 10.0 mi NW 5.8 mph - N/A   Clear
1:35 PM 68.0 °F 41.9 °F 39% 30.09 in 10.0 mi WNW 8.1 mph - N/A   Clear
1:55 PM 68.2 °F 40.6 °F 37% 30.09 in 10.0 mi West 8.1 mph - N/A   Clear
2:15 PM 68.9 °F 40.6 °F 36% 30.09 in 10.0 mi West 5.8 mph - N/A   Clear
2:35 PM 68.2 °F 39.0 °F 34% 30.09 in 10.0 mi WNW 3.5 mph - N/A   Clear
2:55 PM 68.5 °F 38.3 °F 33% 30.09 in 10.0 mi West 3.5 mph - N/A   Clear
3:15 PM 68.9 °F 37.9 °F 32% 30.09 in 10.0 mi WSW 6.9 mph - N/A   Clear
3:35 PM 69.1 °F 38.7 °F 33% 30.10 in 10.0 mi WNW 4.6 mph - N/A   Clear
3:55 PM 68.5 °F 37.9 °F 33% 30.11 in 10.0 mi WNW 4.6 mph - N/A   Clear
4:15 PM 68.5 °F 37.9 °F 33% 30.11 in 10.0 mi WNW 6.9 mph - N/A   Clear
4:35 PM 68.2 °F 38.1 °F 33% 30.11 in 10.0 mi WSW 3.5 mph - N/A   Clear
4:55 PM 68.2 °F 39.7 °F 35% 30.12 in 10.0 mi West 3.5 mph - N/A   Clear
5:15 PM 67.1 °F 37.9 °F 34% 30.13 in 10.0 mi West 3.5 mph - N/A   Clear
5:35 PM 65.5 °F 38.7 °F 37% 30.14 in 10.0 mi West 3.5 mph - N/A   Clear
5:55 PM 64.2 °F 39.7 °F 41% 30.14 in 10.0 mi WNW 3.5 mph - N/A   Clear
6:15 PM 60.3 °F 43.7 °F 54% 30.15 in 10.0 mi Calm Calm - N/A   Clear
6:35 PM 55.0 °F 47.3 °F 75% 30.16 in 10.0 mi Calm Calm - N/A   Clear
6:55 PM 54.7 °F 47.1 °F 76% 30.17 in 10.0 mi Calm Calm - N/A   Clear
7:15 PM 50.4 °F 47.7 °F 90% 30.18 in 10.0 mi Calm Calm - N/A   Clear
7:35 PM 50.4 °F 48.0 °F 92% 30.19 in 10.0 mi Calm Calm - N/A   Clear
7:55 PM 49.6 °F 47.7 °F 93% 30.20 in 10.0 mi Calm Calm - N/A   Clear
8:15 PM 48.2 °F 47.3 °F 97% 30.20 in 10.0 mi Calm Calm - N/A   Clear
8:35 PM 47.1 °F 47.1 °F 100% 30.21 in 10.0 mi Calm Calm - N/A   Clear
8:55 PM 46.9 °F 46.9 °F 100% 30.21 in 10.0 mi Calm Calm - N/A   Clear
9:15 PM 46.6 °F 46.6 °F 100% 30.22 in 10.0 mi Calm Calm - N/A   Clear
9:35 PM 46.4 °F 46.4 °F 100% 30.22 in 10.0 mi Calm Calm - N/A   Clear
11:15 PM 43.9 °F 43.9 °F 100% 30.24 in 10.0 mi Calm Calm - N/A   Clear
11:35 PM 43.3 °F 43.3 °F 100% 30.24 in 10.0 mi Calm Calm - N/A   Clear
11:55 PM 43.9 °F 43.9 °F 100% 30.24 in 10.0 mi Calm Calm - N/A   Clear